Regional Weather Roundup
Issued by NWS

Home | Current Version | Previous Version | Graphics & Text | Print | Product List | Glossary On
Versions: 1 2 3 4 5 6 7 8 9 10 11 12 13 14 15 16 17 18 19 20 21 22 23 24 25 26 27 28 29 30 31 32 33 34 35 36 37 38 39 40 41 42 43 44 45 46 47 48 49 50
000
ASUS43 KLOT 020300
RWRIL

ILLINOIS REGIONAL WEATHER ROUNDUP
NATIONAL WEATHER SERVICE CHICAGO/ROMEOVILLE IL
1000 PM CDT WED OCT 01 2014

NOTE: "FAIR" INDICATES FEW OR NO CLOUDS BELOW 12,000 FEET WITH NO
SIGNIFICANT WEATHER AND/OR OBSTRUCTIONS TO VISIBILITY.

* THESE STATIONS ARE NOT UNDER NWS QUALITY CONTROL. THEY ALSO MAY NOT
  REPORT WEATHER SUCH AS PRECIPITATION OR FOG.

ILZ001-002-007-009-015-016-024-020400-
NORTHWEST ILLINOIS

CITY           SKY/WX    TMP DP  RH WIND       PRES   REMARKS
MOLINE         CLOUDY    62  59  90 CALM      29.85R
$$

ILZ003-004-008-010-011-017-018-020400-
NORTH CENTRAL ILLINOIS

CITY           SKY/WX    TMP DP  RH WIND       PRES   REMARKS
ROCKFORD       CLOUDY    64  55  72 SE5       29.90R
FREEPORT*      CLOUDY    63  56  78 SE8       29.89S
$$

ILZ005-006-012>014-019>023-020400-
NORTHEAST ILLINOIS

CITY           SKY/WX    TMP DP  RH WIND       PRES   REMARKS
CHICAGO-OHARE  CLOUDY    65  53  65 SE10      29.91R
CHICAGO-MIDWAY NOT AVBL
AURORA         CLOUDY    66  54  65 SE7       29.90R
LANSING*       CLOUDY    64  51  62 SE10      29.94R
WAUKEGAN       NOT AVBL
DUPAGE AIRPORT MOCLDY    66  53  63 SE8       29.90R
WHEELING       MOCLDY    66  53  63 SE6       29.93R
NORTHERLY ISL    N/A     64  56  75 SE7         N/A
$$

LMZ740>746-020400-
SOUTHERN LAKE MICHIGAN

STATION/POSITION SKY/WX   TEMP    WIND        PRES    VSBY  WAVE
                          AIR SEA DIR/SP/G                  HT/PER
                          (F)     (DEG/KT/KT) (MB)    (MI)  (FT/S)
SOUTHERN BUOY              63 62  130/ 12/ 14 1014.1S         2/ 3
WAUKEGAN HARBOR            62     140/  8/ 10   N/A
HARRISON CRIB              64     130/ 12/ 14   N/A
BURNHAM HARBOR             64     130/  7/  8   N/A
CALUMET HARBOR             66                   N/A
MICHIGAN CITY              64     110/ 12/ 16   N/A
MICHIGAN CITY 6N           65 64  140/ 14/ 19   N/A           2/ 2
ST. JOSEPH                 63 63  120/ 16/ 21   N/A           1/ 2
$$

ILZ025>027-034>036-040-047-049-050-058-095>099-020400-
WEST-CENTRAL ILLINOIS

CITY           SKY/WX    TMP DP  RH WIND       PRES   REMARKS
QUINCY         CLOUDY    66  64  93 SE10      29.81F
$$

ILZ028>032-037-038-041>044-048-051>054-059>061-020400-
CENTRAL ILLINOIS

CITY           SKY/WX    TMP DP  RH WIND       PRES   REMARKS
DECATUR        CLOUDY    71  60  68 S6        29.90S
PEORIA         CLOUDY    71  64  78 S12       29.84F
SPRINGFIELD    HVY RAIN  68  66  93 S7        29.88S FOG
TAYLORVILLE    NOT AVBL
$$

ILZ033-039-045-046-055>057-062-063-020400-
EAST-CENTRAL ILLINOIS

CITY           SKY/WX    TMP DP  RH WIND       PRES   REMARKS
MATTOON        CLOUDY    69  57  65 SE6       29.90F
$$

ILZ079-100>102-020400-
SOUTHWEST ILLINOIS

CITY           SKY/WX    TMP DP  RH WIND       PRES   REMARKS
BELLEVILLE     CLOUDY    75  65  70 E6        29.86R
CAHOKIA*       CLOUDY    78  64  61 S6        29.85R HX  80
SPARTA*        CLOUDY    75  63  66 SE5       29.89R
$$

ILZ064>066-069>071-074>076-080>082-084>086-088>090-092>094-020400-
SOUTH-CENTRAL ILLINOIS

CITY           SKY/WX    TMP DP  RH WIND       PRES   REMARKS
CARBONDALE     CLOUDY    72  62  71 SE7       29.89S
$$

ILZ067-068-072-073-078-083-087-091-020400-
SOUTHEAST ILLINOIS

CITY           SKY/WX    TMP DP  RH WIND       PRES   REMARKS
LAWRENCEVILLE  PTCLDY    68  58  70 CALM      29.93R
ROBINSON*      MOCLDY    68  59  73 CALM      29.94R
$$

ABBREVIATIONS USED IN REMARKS
   TC - TEMPERATURE IN CELSIUS
  WCI - WIND CHILL INDEX
   HX - HEAT INDEX
  VSB - VISIBILITY
$$




USA.gov is the U.S. government's official web portal to all federal, state and local government web resources and services.